THOR AGENA B R/B, 1807

Orbit data source: Space-Track

THOR AGENA B R/B, 1807 is space debris in LEO originally from a launch on Mon, 29 Nov 1965 UTC launched from the Air Force Western Test Range (AFWTR). Debris objects in space refer to the collection of defunct objects orbiting the Earth. Examples of debris include non-operational satellites, rocket bodies, and fragments generated from explosions, collisions, or faulty payload assembly.

Loading next visibility...
Identifier
1807, 1965-098C
Orbit
LEO
Country
Flag of USUS
Related business
Manufacturer
LMSC
Mission
Spacecraft
Bus & Motor
AGENA B, Unknown motor
Mass
600 kg wet, 600 kg dry
Launch date (UTC)
1965-11-29 (60 years ago)
Launch vehicle
Unknown
Launch site
Air Force Western Test Range (AFWTR)
Object type
Payload
Rocket body
Debris
Shape & HBR
Unknown
Radar Cross Section
Large (>1 m²)

Expand to show TLE details & history
Last TLE update: 22 hours ago

TLE from 22 hours ago
0 THOR AGENA B R/B
1 01807U 65098C   26034.43340097  .00000770  00000-0  25788-3 0  9996
2 01807  79.8385 154.8467 1330612 302.1052  45.7547 12.27891389656887
Epoch: 2026-02-03T10:24Z
TLE epoch observation values (Epoch: 2026-02-03T10:24:05.843Z)
Latitude
-0.00008°
Longitude
-134.79206°
Altitude
907.056 km
Speed
7.697 km/s
True Right ascension
10h 19m 23s
True Declination
0° 00' 00"
Sunlit
Object was in full shadow at epoch
Visualization orbit readout
Latitude
Unknown
Longitude
Unknown
Altitude
Unknown
Speed
Unknown
Apparent Right ascension
Unknown
Apparent Declination
Unknown
Sunlit
N/A
Visualization observer readout
Local Sidereal Time
10:38:26
Azimuth
Unknown
Elevation
Unknown
Doppler factor
Unknown
Orbital elements
Apogee altitude
2,611.472 km
Perigee altitude
500.08 km
Semi-major axis
7,933.913 km
Eccentricity
0.13306
Inclination
79.8385°
RAAN
154.8467°
Arg. of periapsis
302.1052°
True anomaly
58.00755°
Mean anomaly
45.7547°
Eccentric anomaly
51.7411°
Mean motion
3.07123 °/min
Orbital period
117.22 mins
BSTAR
0.00025788
Loading maneuver chart data...
Computing Atmospheric mass density...
Loading historical data...
Loading historical data...
Loading historical data...
Loading historical data...
Loading historical data...
Loading historical data...
Loading historical data...

Documentation

Showing up to 5 results
|